Weather History for Parkersburg, WV

Change the Weather History Date:

Thursday, February 14, 2013

  Actual Average Record
Temperature  
Mean Temperature 38 °F 34 °F  
Max Temperature 48 °F 44 °F 73 °F (1930)
Min Temperature 28 °F 25 °F -6 °F (1899)
Degree Days  
Heating Degree Days 27 31  
Month to date heating degree days 445 444  
Since 1 July heating degree days 3286 3389  
Cooling Degree Days 0 0  
Month to date cooling degree days 0 0  
Year to date cooling degree days 0 0  
Moisture  
Dew Point 29 °F    
Average Humidity 73    
Maximum Humidity 92    
Minimum Humidity 53    
Precipitation  
Precipitation 0.00 in 0.10 in 2.35 in (2000)
Month to date precipitation 0.59 1.34  
Year to date precipitation 3.97 4.29  
Snow  
Snow 0.00 in - - ()
Month to date snowfall 0.0  
Snow Depth 0.00 in    
Sea Level Pressure  
Sea Level Pressure 29.97 in    
Wind  
Wind Speed 8 mph (South)    
Max Wind Speed 20 mph    
Max Gust Speed 26 mph    
Visibility 8 miles    
Events      
T = Trace of Precipitation, MM = Missing Value Source: NWS Daily Summary

Daily Weather History Graph

Daily Weather History Graph

Search for Another Location

Airport:

Trip Planner

Search our weather history database for the weather conditions in past years. The results will help you decide how hot, cold, wet, or windy it might be!

Date:

Astronomy

Feb. 14, 2013 Rise Set
Actual Time 7:18 AM EST 6:01 PM EST
Civil Twilight 6:51 AM EST 6:29 PM EST
Nautical Twilight 6:19 AM EST 7:00 PM EST
Astronomical Twilight 5:48 AM EST 7:31 PM EST
Moon 9:21 AM EST (2/14) 11:01 PM EST (2/14)
Length of Visible Light 11h 38m
Length of Day
10h 43m
Waxing Crescent, 21% of the Moon is Illuminated
Feb 14
Waxing Crescent
Feb 17
First Quarter
Feb 25
Full
Mar 4
Last Quarter
Mar 11
New

Hourly Weather History & Observations

Time (EST) Temp. Windchill Dew Point Humidity Pressure Visibility Wind Dir Wind Speed Gust Speed Precip Events Conditions
12:16 AM 30.2 °F 26.7 °F 26.6 °F 86% 29.95 in 7.0 mi SW 3.5 mph - N/A   Overcast
12:53 AM 30.0 °F 24.1 °F 26.1 °F 85% 29.97 in 6.0 mi SSW 5.8 mph - N/A   Overcast
1:39 AM 30.2 °F 26.7 °F 26.6 °F 86% 29.95 in 6.0 mi South 3.5 mph - N/A   Scattered Clouds
1:53 AM 28.9 °F 25.2 °F 26.1 °F 89% 29.98 in 6.0 mi South 3.5 mph - N/A   Clear
2:53 AM 28.0 °F 24.2 °F 25.0 °F 88% 29.99 in 5.0 mi SSE 3.5 mph - N/A   Clear
3:53 AM 28.9 °F 23.9 °F 26.1 °F 89% 29.99 in 6.0 mi SSE 4.6 mph - N/A   Overcast
4:53 AM 30.0 °F 24.1 °F 27.0 °F 88% 29.99 in 7.0 mi South 5.8 mph - N/A   Overcast
5:53 AM 30.0 °F 25.2 °F 27.0 °F 88% 30.00 in 7.0 mi SSE 4.6 mph - N/A   Mostly Cloudy
6:53 AM 30.0 °F 24.1 °F 27.0 °F 88% 30.01 in 6.0 mi South 5.8 mph - N/A   Clear
7:46 AM 30.2 °F 22.6 °F 28.4 °F 93% 29.98 in 5.0 mi South 8.1 mph - N/A   Mostly Cloudy
7:53 AM 30.9 °F 24.3 °F 28.0 °F 89% 30.01 in 5.0 mi South 6.9 mph - N/A   Mostly Cloudy
8:07 AM 30.2 °F 23.4 °F 28.4 °F 93% 29.98 in 5.0 mi South 6.9 mph - N/A   Scattered Clouds
8:49 AM 32.0 °F 24.8 °F 28.4 °F 87% 29.98 in 6.0 mi South 8.1 mph - N/A   Mostly Cloudy
8:53 AM 32.0 °F 24.8 °F 28.9 °F 88% 30.01 in 6.0 mi South 8.1 mph - N/A   Mostly Cloudy
9:53 AM 34.0 °F 28.0 °F 30.0 °F 85% 30.01 in 7.0 mi South 6.9 mph - N/A   Overcast
10:53 AM 36.0 °F 27.1 °F 30.9 °F 82% 30.01 in 8.0 mi SSW 13.8 mph 17.3 mph N/A   Overcast
11:53 AM 37.0 °F 29.3 °F 32.0 °F 82% 30.01 in 9.0 mi South 11.5 mph - N/A   Overcast
12:53 PM 41.0 °F 34.3 °F 34.0 °F 76% 29.97 in 10.0 mi South 11.5 mph - N/A   Scattered Clouds
1:53 PM 45.0 °F 39.3 °F 33.1 °F 63% 29.94 in 10.0 mi South 11.5 mph 18.4 mph N/A   Scattered Clouds
2:53 PM 45.0 °F 39.3 °F 32.0 °F 60% 29.93 in 10.0 mi SSW 11.5 mph 20.7 mph N/A   Overcast
3:53 PM 46.0 °F 39.9 °F 30.9 °F 56% 29.91 in 10.0 mi SSW 13.8 mph 23.0 mph N/A   Mostly Cloudy
4:53 PM 46.9 °F - 30.9 °F 54% 29.91 in 10.0 mi South 9.2 mph 17.3 mph N/A   Mostly Cloudy
5:53 PM 46.9 °F - 30.9 °F 54% 29.92 in 10.0 mi SSW 9.2 mph - N/A   Mostly Cloudy
6:53 PM 45.0 °F 41.8 °F 30.9 °F 58% 29.94 in 10.0 mi SSE 5.8 mph - N/A   Mostly Cloudy
7:53 PM 44.1 °F 39.0 °F 30.9 °F 60% 29.95 in 10.0 mi South 9.2 mph - N/A   Scattered Clouds
8:53 PM 44.1 °F 41.5 °F 30.9 °F 60% 29.95 in 10.0 mi SSW 4.6 mph - N/A   Mostly Cloudy
9:53 PM 45.0 °F 41.2 °F 30.9 °F 58% 29.96 in 10.0 mi SSW 6.9 mph - N/A   Partly Cloudy
10:53 PM 44.1 °F 40.1 °F 30.9 °F 60% 29.96 in 10.0 mi SW 6.9 mph - N/A   Clear
11:53 PM 43.0 °F 39.5 °F 30.9 °F 62% 29.97 in 10.0 mi WSW 5.8 mph - N/A   Clear